Flag for U.S.A. Weather past 2 weeks in Jacksonville, Florida, U.S.A.

Now
81 °F

Heavy rain. Broken clouds.


Feels Like: 86 °F
Forecast: 72 / 86 °F
Wind: 8 mph from Northeast

Location: Jacksonville Naval Air Station

Current Time: May 30, 2015 at 11:29:35 AM

Latest Report: May 30, 2015 at 10:53 AM


Visibility: 5 mi

Pressure: 30.12 "Hg

Humidity: 77%

Dew point: 73 °F

Location of JacksonvilleLocation

Historic Weather in Jacksonville — Graph

°F

Jacksonville temperature yesterday

Maximum temperature yesterday: 88 °F (at 3:53 PM)
Minimum temperature yesterday: 76 °F (at 5:53 AM)
Average temperature yesterday: 82 °F

Past Weeks' High & Low Weather Summary

 TemperatureHumidityPressure
High96 °F (May 21, 3:53 PM)85% (May 19, 11:53 PM)30.30 "Hg (May 19, 11:53 PM)
Low74 °F (May 16, 4:53 AM)31% (May 22, 2:53 PM)29.87 "Hg (May 21, 5:53 PM)
Average82 °F61%30.14 "Hg
* Reported May 15 9:53 AM — May 30 9:53 AM, Jacksonville, Weather by CustomWeather, © 2015

Note: Actual official high and low records may vary slightly from our data, if they occured in-between our weather recording intervals... More about our weather records

Advertising

Jacksonville weather history for previous 24 hours

 ConditionsComfort  
Time TempWeatherWind HumidityBarometerVisibility
9:53 AM
Sat, May 30
82 °FBroken clouds.9 mph67%30.12 "Hg10 mi
8:53 AM81 °FBroken clouds.6 mph69%30.11 "Hg10 mi
7:53 AM80 °FPartly sunny.7 mph74%30.10 "Hg10 mi
6:53 AM79 °FPassing clouds.7 mph77%30.10 "Hg10 mi
5:53 AM79 °FPassing clouds.5 mph77%30.08 "Hg10 mi
4:53 AM78 °FPassing clouds.6 mph76%30.07 "Hg10 mi
3:53 AM78 °FPassing clouds.5 mph76%30.06 "Hg10 mi
2:53 AM78 °FPassing clouds.6 mph74%30.08 "Hg10 mi
1:53 AM78 °FPassing clouds.6 mph74%30.10 "Hg10 mi
12:53 AM79 °FPassing clouds.7 mph69%30.10 "Hg10 mi
11:53 PM
Fri, May 29
79 °FPassing clouds.7 mph69%30.12 "Hg10 mi
10:53 PM80 °FPassing clouds.6 mph64%30.12 "Hg10 mi
9:53 PM80 °FPassing clouds.5 mph62%30.11 "Hg10 mi
8:53 PM80 °FBroken clouds.8 mph64%30.11 "Hg10 mi
7:53 PM82 °FBroken clouds.13 mph60%30.11 "Hg10 mi
6:53 PM84 °FBroken clouds.14 mph55%30.10 "Hg10 mi
5:53 PM87 °FBroken clouds.10 mph43%30.09 "Hg10 mi
4:53 PM88 °FScattered clouds.10 mph40%30.11 "Hg10 mi
3:53 PM88 °FScattered clouds.12 mph42%30.12 "Hg10 mi
2:53 PM87 °FScattered clouds.10 mph42%30.14 "Hg10 mi
1:53 PM86 °FScattered clouds.9 mph43%30.15 "Hg10 mi
12:53 PM86 °FScattered clouds.12 mph42%30.16 "Hg10 mi
11:53 AM86 °FScattered clouds.13 mph43%30.16 "Hg10 mi
Weather by CustomWeather, © 2015

See weather overviewHow to use our weather pages